GW6351 Weather Reports


Display with metric or nautical units.
time (UTC)temp
F
wind
direction
speed
MPH
gust
MPH
rain 1hr
in
rain 24hr
in
rain mn
in
humidity
%
barometer
mb
20260505022515 62 243 9.0 15.0 0.00 0.00 0.00 34 1008.6
20260505022013 62 286 9.0 17.0 0.00 0.00 0.00 32 1008.4
20260505021544 62 259 9.0 16.0 0.00 0.00 0.00 31 1008.6
20260505021011 62 267 9.0 16.0 0.00 0.00 0.00 31 1008.6
20260505020513 62 252 11.0 16.0 0.00 0.00 0.00 30 1008.4
20260505020045 63 259 10.0 16.0 0.00 0.00 0.00 30 1008.4
20260505015511 63 254 10.0 16.0 0.00 0.00 0.00 31 1008.6
20260505015012 63 264 9.0 16.0 0.00 0.00 0.00 30 1008.4
20260505014545 63 248 9.0 17.0 0.00 0.00 0.00 30 1008.5
20260505014015 63 264 10.0 17.0 0.00 0.00 0.00 32 1008.6
20260505013513 63 280 10.0 14.0 0.00 0.00 0.00 31 1008.4
20260505013059 62 238 5.0 9.0 0.00 0.00 0.00 34 1008.6
20260505012512 62 244 5.0 10.0 0.00 0.00 0.00 33 1008.7
20260505012011 62 271 7.0 11.0 0.00 0.00 0.00 32 1008.8
20260505011540 62 261 7.0 11.0 0.00 0.00 0.00 32 1008.8
20260505011010 62 269 7.0 10.0 0.00 0.00 0.00 33 1008.8
20260505010517 62 270 5.0 10.0 0.00 0.00 0.00 33 1008.9
20260505005514 63 262 3.0 6.0 0.00 0.00 0.00 34 1008.9
20260505005014 63 274 3.0 6.0 0.00 0.00 0.00 34 1008.9
20260505004538 63 263 3.0 6.0 0.00 0.00 0.00 34 1008.9
20260505004013 63 276 3.0 7.0 0.00 0.00 0.00 32 1008.7
20260505003516 64 254 4.0 7.0 0.00 0.00 0.00 35 1008.7
20260505003037 64 260 3.0 8.0 0.00 0.00 0.00 33 1008.8
20260505002515 64 253 3.0 10.0 0.00 0.00 0.00 35 1008.8
20260505002015 64 263 7.0 13.0 0.00 0.00 0.00 32 1008.8
20260505001546 65 280 7.0 13.0 0.00 0.00 0.00 32 1008.8
20260505001012 65 269 4.0 9.0 0.00 0.00 0.00 32 1008.9
20260505000513 65 286 4.0 7.0 0.00 0.00 0.00 33 1008.9
20260505000054 66 275 4.0 7.0 0.00 0.00 0.00 32 1008.8
20260504235513 66 270 4.0 7.0 0.00 0.00 0.00 32 1008.9
20260504235011 65 267 3.0 7.0 0.00 0.00 0.00 33 1009.0
20260504234551 66 292 3.0 7.0 0.00 0.00 0.00 35 1008.9
20260504234013 66 254 2.0 5.0 0.00 0.00 0.00 33 1008.9
20260504233514 66 333 3.0 5.0 0.00 0.00 0.00 33 1008.8
20260504233054 66 286 1.0 4.0 0.00 0.00 0.00 35 1008.8
20260504232514 66 280 2.0 4.0 0.00 0.00 0.00 34 1009.0
20260504232010 67 306 1.0 3.0 0.00 0.00 0.00 33 1008.9
20260504231538 67 340 0.0 3.0 0.00 0.00 0.00 33 1008.9
20260504231013 67 40 1.0 6.0 0.00 0.00 0.00 32 1008.9
20260504230513 67 348 2.0 6.0 0.00 0.00 0.00 33 1008.9
20260504230035 67 342 2.0 5.0 0.00 0.00 0.00 35 1008.9
20260504225514 66 42 2.0 5.0 0.00 0.00 0.00 33 1008.9
20260504225017 66 53 3.0 5.0 0.00 0.00 0.00 33 1009.0
20260504224543 66 360 1.0 5.0 0.00 0.00 0.00 33 1009.0
20260504224011 66 17 2.0 5.0 0.00 0.00 0.00 34 1008.9
20260504223511 67 352 1.0 4.0 0.00 0.00 0.00 33 1009.1
20260504223052 67 355 2.0 4.0 0.00 0.00 0.00 32 1009.1
20260504222513 66 355 0.0 5.0 0.00 0.00 0.00 32 1009.2
20260504222016 66 342 2.0 5.0 0.00 0.00 0.00 33 1009.2
20260504221548 67 309 1.0 5.0 0.00 0.00 0.00 32 1009.3
20260504221014 67 310 1.0 5.0 0.00 0.00 0.00 31 1009.3
20260504220514 68 302 2.0 6.0 0.00 0.00 0.00 31 1009.3
20260504220050 68 38 3.0 6.0 0.00 0.00 0.00 34 1009.4
20260504215514 66 61 2.0 6.0 0.00 0.00 0.00 34 1009.4
20260504215014 65 15 2.0 5.0 0.00 0.00 0.00 34 1009.5
20260504214546 65 26 2.0 5.0 0.00 0.00 0.00 35 1009.5
20260504214017 65 72 1.0 4.0 0.00 0.00 0.00 35 1009.5
20260504213511 65 40 3.0 8.0 0.00 0.00 0.00 34 1009.5
20260504213051 65 319 4.0 8.0 0.00 0.00 0.00 32 1009.7
20260504212513 66 48 2.0 10.0 0.00 0.00 0.00 32 1009.8
20260504212013 67 319 3.0 10.0 0.00 0.00 0.00 32 1009.7
20260504211543 68 352 2.0 10.0 0.00 0.00 0.00 32 1009.8
20260504211014 69 321 2.0 7.0 0.00 0.00 0.00 32 1009.6
20260504210514 68 267 3.0 8.0 0.00 0.00 0.00 33 1009.7
20260504210051 68 136 5.0 8.0 0.00 0.00 0.00 28 1009.7
20260504205514 69 199 2.0 6.0 0.00 0.00 0.00 29 1009.8
20260504205011 69 178 2.0 7.0 0.00 0.00 0.00 27 1010.0
20260504204545 69 233 2.0 10.0 0.00 0.00 0.00 30 1010.1
20260504204013 69 340 3.0 10.0 0.00 0.00 0.00 32 1010.2
20260504203518 68 331 3.0 9.0 0.00 0.00 0.00 33 1010.1
20260504203053 68 170 3.0 11.0 0.00 0.00 0.00 31 1010.0
20260504202515 69 100 5.0 11.0 0.00 0.00 0.00 33 1010.0
20260504202014 68 136 4.0 9.0 0.00 0.00 0.00 33 1009.9
20260504201600 68 34 1.0 10.0 0.00 0.00 0.00 31 1010.0
20260504201011 68 51 4.0 10.0 0.00 0.00 0.00 34 1009.8
20260504200513 67 338 2.0 9.0 0.00 0.00 0.00 34 1010.0
20260504200047 67 28 4.0 9.0 0.00 0.00 0.00 33 1010.0
20260504195514 67 192 2.0 9.0 0.00 0.00 0.00 33 1010.2
20260504195014 67 355 5.0 9.0 0.00 0.00 0.00 31 1010.0
20260504194550 67 63 3.0 10.0 0.00 0.00 0.00 34 1010.2
20260504194015 67 317 3.0 10.0 0.00 0.00 0.00 32 1010.0
20260504193514 69 9 4.0 9.0 0.00 0.00 0.00 32 1010.1
20260504193047 69 34 3.0 9.0 0.00 0.00 0.00 32 1010.0
20260504192515 68 29 2.0 10.0 0.00 0.00 0.00 31 1010.2
20260504192014 67 63 4.0 10.0 0.00 0.00 0.00 32 1010.2
20260504191557 67 90 4.0 7.0 0.00 0.00 0.00 31 1010.2
20260504191015 67 355 3.0 6.0 0.00 0.00 0.00 32 1010.2
20260504190515 67 147 1.0 4.0 0.00 0.00 0.00 32 1010.6
20260504190113 66 262 1.0 4.0 0.00 0.00 0.00 28 1010.7
20260504185515 66 304 1.0 7.0 0.00 0.00 0.00 29 1010.6
20260504185018 66 232 2.0 7.0 0.00 0.00 0.00 25 1010.5
20260504184603 66 262 4.0 8.0 0.00 0.00 0.00 26 1010.7
20260504184014 64 236 3.0 8.0 0.00 0.00 0.00 27 1010.7
20260504183514 64 178 2.0 8.0 0.00 0.00 0.00 26 1010.8
20260504183046 64 250 3.0 8.0 0.00 0.00 0.00 25 1010.5
20260504182515 64 259 3.0 8.0 0.00 0.00 0.00 22 1010.7
20260504182013 64 242 3.0 8.0 0.00 0.00 0.00 27 1010.6
20260504181551 64 207 3.0 8.0 0.00 0.00 0.00 27 1010.5
20260504181018 64 253 3.0 7.0 0.00 0.00 0.00 29 1010.6
20260504180514 63 231 2.0 7.0 0.00 0.00 0.00 29 1010.5
20260504180045 63 223 2.0 6.0 0.00 0.00 0.00 30 1010.4
20260504175514 63 273 2.0 6.0 0.00 0.00 0.00 30 1010.6
20260504175015 63 279 2.0 7.0 0.00 0.00 0.00 31 1010.4
20260504174546 63 267 3.0 7.0 0.00 0.00 0.00 31 1010.4
20260504174015 63 250 3.0 5.0 0.00 0.00 0.00 32 1010.4
20260504173512 63 317 2.0 4.0 0.00 0.00 0.00 31 1010.4
20260504173054 63 250 2.0 4.0 0.00 0.00 0.00 33 1010.3
20260504172514 62 319 2.0 4.0 0.00 0.00 0.00 33 1010.3
20260504172014 62 249 2.0 7.0 0.00 0.00 0.00 32 1010.4
20260504171554 62 261 3.0 7.0 0.00 0.00 0.00 32 1010.4
20260504171019 62 300 2.0 6.0 0.00 0.00 0.00 31 1010.4
20260504170519 62 269 3.0 6.0 0.00 0.00 0.00 32 1010.3
20260504151015 59 258 1.0 4.0 0.00 0.00 0.00 30 1010.5
20260504150515 59 249 2.0 4.0 0.00 0.00 0.00 29 1010.5
20260504141014 58 238 2.0 5.0 0.00 0.00 0.00 26 1010.0
20260504140513 57 242 2.0 6.0 0.00 0.00 0.00 26 1010.0
20260504140105 57 269 2.0 6.0 0.00 0.00 0.00 26 1010.0
20260504130517 56 192 1.0 3.0 0.00 0.00 0.00 26 1009.5
20260504110513 58 196 2.0 6.0 0.00 0.00 0.00 26 1009.7
20260504100511 58 182 1.0 3.0 0.00 0.00 0.00 36 1009.9
20260504081535 58 228 1.0 5.0 0.00 0.00 0.00 43 1010.5
20260504081011 58 225 2.0 5.0 0.00 0.00 0.00 42 1010.3
20260504080510 58 214 2.0 5.0 0.00 0.00 0.00 42 1010.3
20260504050512 58 252 2.0 4.0 0.00 0.00 0.00 45 1011.2
20260504045511 58 263 3.0 8.0 0.00 0.00 0.00 45 1011.1
20260504045010 58 238 4.0 8.0 0.00 0.00 0.00 46 1011.0
20260504044535 57 269 4.0 6.0 0.00 0.00 0.00 46 1011.0
20260504044015 57 271 2.0 4.0 0.00 0.00 0.00 46 1011.0
20260504043510 58 265 3.0 4.0 0.00 0.00 0.00 45 1011.0
20260504043041 57 288 2.0 4.0 0.00 0.00 0.00 45 1011.0
20260504042513 57 261 2.0 4.0 0.00 0.00 0.00 46 1011.0
20260504042014 57 258 3.0 6.0 0.00 0.00 0.00 46 1011.0
20260504041534 57 263 3.0 6.0 0.00 0.00 0.00 47 1011.0
20260504041011 57 252 2.0 4.0 0.00 0.00 0.00 47 1011.0
20260504040512 57 261 2.0 4.0 0.00 0.00 0.00 47 1011.0
20260504040048 57 254 3.0 4.0 0.00 0.00 0.00 46 1011.0
20260504035513 57 273 2.0 4.0 0.00 0.00 0.00 46 1011.0
20260504035013 58 275 2.0 4.0 0.00 0.00 0.00 46 1011.0
20260504034537 58 271 2.0 4.0 0.00 0.00 0.00 45 1010.8
20260504034013 58 300 0.0 3.0 0.00 0.00 0.00 44 1010.8
20260504033512 59 300 0.0 3.0 0.00 0.00 0.00 44 1010.7
20260504033048 59 318 1.0 4.0 0.00 0.00 0.00 42 1010.7
20260504032512 59 217 1.0 4.0 0.00 0.00 0.00 43 1010.7
20260504032014 58 123 1.0 4.0 0.00 0.00 0.00 44 1010.7
20260504031536 58 111 2.0 4.0 0.00 0.00 0.00 45 1010.7
20260504031015 58 105 2.0 4.0 0.00 0.00 0.00 45 1010.8
20260504030514 58 105 3.0 4.0 0.00 0.00 0.00 45 1010.7
20260504030040 59 98 2.0 7.0 0.00 0.00 0.00 45 1010.6
20260504025514 59 96 4.0 7.0 0.00 0.00 0.00 44 1010.6
20260504025019 59 98 3.0 6.0 0.00 0.00 0.00 43 1010.6
20260504024545 60 101 3.0 4.0 0.00 0.00 0.00 44 1010.7
20260504024012 60 103 2.0 7.0 0.00 0.00 0.00 43 1010.6
20260504023512 60 98 3.0 9.0 0.00 0.00 0.00 43 1010.7
20260504023039 60 90 4.0 9.0 0.00 0.00 0.00 42 1010.6